Regional Weather Roundup
Issued by NWS

Home | Current Version | Previous Version | Text Only | Print | Product List | Glossary Off
Versions: 1 2 3 4 5 6 7 8 9 10 11 12 13 14 15 16 17 18 19 20 21 22 23 24 25 26 27 28 29 30 31 32 33 34 35 36 37 38 39 40 41 42 43 44 45 46 47 48 49 50

000
ASUS43 KMKX 152221
RWRWI

WISCONSIN REGIONAL WEATHER ROUNDUP
NATIONAL WEATHER SERVICE MILWAUKEE/SULLIVAN WI
500 PM CDT TUE APR 15 2014

NOTE: "FAIR" INDICATES FEW OR NO CLOUDS BELOW 12,000 FEET WITH NO
SIGNIFICANT WEATHER AND/OR OBSTRUCTIONS TO VISIBILITY.

WIZ001-002-006>008-014>016-023>028-152300-
NORTHWEST WISCONSIN

CITY           SKY/WX    TMP DP  RH WIND       PRES   REMARKS
SUPERIOR ARPT  SUNNY     33   2  27 N3        30.06S
ASHLAND        SUNNY     30   2  30 NW3       30.06F
HAYWARD        SUNNY     32  -2  23 VRB6      30.04S WCI  26
SIREN          SUNNY     33  -1  23 N3        30.05S
RICE LAKE      NOT AVBL
LADYSMITH      SUNNY     33   6  32 W9        30.06R WCI  26
EAU CLAIRE     SUNNY     36   5  27 W6        30.06F WCI  31
MENOMONIE      CLEAR     37   4  26 SW5       30.06F WCI  33
NEW RICHMOND   MOSUNNY   35   3  26 SW7       30.06S WCI  29
OSCEOLA        SUNNY     36   2  24 W3        30.09S
$$

WIZ003>005-009-010-017-018-152300-
NORTH CENTRAL WISCONSIN

CITY           SKY/WX    TMP DP  RH WIND       PRES   REMARKS
WOODRUFF       MOSUNNY   34   7  32 W7        30.01R WCI  28
RHINELANDER    PTSUNNY   27   5  39 W14G22    30.01S WCI  16
EAGLE RIVER    PTSUNNY   27   4  37 NW6       30.01R WCI  20
LAND O LAKES   PTSUNNY   28   3  34 NW7       30.01S WCI  21
PHILLIPS       SUNNY     31   4  31 NW9G16    30.01S WCI  23
TOMAHAWK       MOSUNNY   29   3  34 W6        30.02S WCI  22
MEDFORD        PTSUNNY   29  11  46 W9        30.03S WCI  21
MERRILL        MOSUNNY   31   7  35 CALM      30.04S
$$

WIZ029-030-035-036-043>047-152300-
CENTRAL WISCONSIN

CITY           SKY/WX    TMP DP  RH WIND       PRES   REMARKS
WAUSAU         MOSUNNY   29  10  45 W8        30.04S WCI  21
MOSINEE        PTSUNNY   28  10  47 W5        30.07S WCI  23
MARSHFIELD     MOSUNNY   31  11  43 W8        30.05F WCI  23
STEVENS POINT  CLOUDY    29  10  44 W8        30.08S WCI  21
WAUPACA        PTSUNNY   32  14  47 W7        30.10R WCI  26
WAUTOMA        MOSUNNY   33  16  50 W12       30.11R WCI  24
WISC RAPIDS    PTSUNNY   31  10  41 VRB7      30.09S WCI  24
CAMP DOUGLAS   PTSUNNY   34  12  40 NW5       30.09F WCI  30
$$

WIZ011>013-019>022-031-037>040-048>050-152300-
NORTHEAST WISCONSIN

CITY           SKY/WX    TMP DP  RH WIND       PRES   REMARKS
ANTIGO         PTSUNNY   28  10  46 W12G20    30.03S WCI  18
STURGEON BAY   PTSUNNY   30  16  55 W13       30.08S WCI  20
GREEN BAY      MOSUNNY   32  18  56 W13       30.09S WCI  22
MANITOWOC      PTSUNNY   32  15  49 W16       30.11R WCI  21
APPLETON       PTSUNNY   30  12  47 NW10      30.09S WCI  21
CLINTONVILLE   CLOUDY    32  14  47 W13       30.09R WCI  22
OSHKOSH        CLOUDY    31  18  58 W8        30.10S WCI  23
$$

WIZ032>034-041-042-053>061-152300-
SOUTHWEST WISCONSIN

CITY           SKY/WX    TMP DP  RH WIND       PRES   REMARKS
LA CROSSE      SUNNY     38  10  31 NW6       30.09F WCI  33
SPARTA         MOSUNNY   35  10  34 SW9       30.10S WCI  28
VIROQUA        FAIR      33  12  41 CALM      30.07S
BOSCOBEL       SUNNY     38  11  32 SW5       30.11S WCI  34
PRAIRIE DU CHI SUNNY     38  13  35 W12       30.11F WCI  30
PLATTEVILLE    FAIR      37  18  45 W7        30.11S WCI  32
$$

WIZ056-057-062-063-064-067-068-152300-
SOUTH CENTRAL WISCONSIN

CITY           SKY/WX    TMP DP  RH WIND       PRES   REMARKS
BARABOO/DELLS  MOSUNNY   33  15  48 W6        30.09F WCI  27
LONE ROCK      MOSUNNY   37  15  40 SW9       30.11S WCI  30
WATERTOWN      PTSUNNY   34  15  44 W6        30.11R WCI  29
MADISON        PTSUNNY   36  15  42 W5        30.12R WCI  32
MIDDLETON      MOCLDY    35  13  41 W3        30.10S
MONROE         PTSUNNY   36  13  38 SW5       30.09F WCI  32
JANESVILLE     MOSUNNY   39  10  30 NW12      30.11S WCI  32
$$

WIZ051-052-058>065-066-070>072-152300-
SOUTHEAST WISCONSIN

CITY           SKY/WX    TMP DP  RH WIND       PRES   REMARKS
MILWAUKEE      PTSUNNY   32  18  56 SE14      30.13S WCI  22
WAUKESHA       PTSUNNY   34  14  44 W12       30.12S WCI  25
MILWAUKEE/TIMM CLOUDY    34  12  40 NW9       30.12S WCI  26
RACINE         CLOUDY    31  18  58 SE14      30.14F WCI  21
BURLINGTON     MOSUNNY   36  14  41 W10       30.12R WCI  28
KENOSHA        CLOUDY    31  19  61 SE13      30.13S WCI  21
FOND DU LAC    PTSUNNY   32  17  54 NW10      30.11R WCI  24
SHEBOYGAN      PTSUNNY   32  15  49 W12       30.11R WCI  23
WEST BEND      CLOUDY    32  10  40 NW10      30.11R WCI  24
JUNEAU         PTSUNNY   33   9  37 NW7       30.12R WCI  26
$$

LSZ147-162-152300-
LAKE SUPERIOR

STATION/POSITION TIME  TEMP    WIND        PRES    WAVE
                       AIR SEA DIR/SP/G            HT/PER
                 (UTC) (F)     (DEG/KT/KT) (MB)    (FT/S)
DEVILS ISLAND    2200   28     220/ 11/ 13 1019.2F
PORT WING        2140   29     240/  8/ 11 1018.6F
SAXON HARBOR     2100           60/  5/  7 1019.0F
$$

LMZ867-665-643>646-152300-
LAKE MICHIGAN

STATION/POSITION TIME  TEMP    WIND        PRES    WAVE
                       AIR SEA DIR/SP/G            HT/PER
                 (UTC) (F)     (DEG/KT/KT) (MB)    (FT/S)
NORTHPORT PIER   2100   31     270/  4/  7 1018.3F
SISTER BAY       2123   39     250/  9/ 10   N/A
KEWAUNEE LAKESHO 2100   30     250/ 11/ 16 1019.4F
SHEBOYGAN LAKESH 2200   33     260/  8/ 10 1020.8R
PORT WASHINGTON  2100   34     280/ 10/ 16 1020.3F
MILWAUKEE LAKESH 2200   29     130/ 14/ 15   N/A
KENOSHA   LAKESH 2200   30     160/ 13/ 16   N/A
$$

TC  - TEMPERATURE IN CELSIUS
VSB - VISIBILITY IN STATUTE MILES
WCI - WIND CHILL INDEX
HX  - HEAT INDEX




USA.gov is the U.S. government's official web portal to all federal, state and local government web resources and services.